Home > Time Zones > World Clock > Weather > Sweden > Lund > Past weeks

Flag for Sweden Weather past 2 weeks in Lund, Sweden

Now
36 °F

Clear.


Feels Like: 27 °F
Forecast: 33 / 43 °F
Wind: 12 mph from Southeast

Location: Malmo / Sturup

Current Time: Feb 27, 2015 at 5:48:45 AM

Latest Report: Feb 27, 2015 at 5:20 AM


Visibility: 10 mi

Pressure: 29.86 "Hg

Humidity: 87%

Dew point: 32 °F

Location of LundLocation

Historic Weather in Lund — Graph

°F

Lund temperature yesterday

Maximum temperature yesterday: 45 °F (at 2:20 PM)
Minimum temperature yesterday: 28 °F (at 1:50 AM)
Average temperature yesterday: 37 °F

Past Weeks' High & Low Weather Summary

 TemperatureHumidityPressure
High45 °F (Feb 26, 2:20 PM)100% (Feb 13, 8:50 AM)30.54 "Hg (Feb 13, 8:50 AM)
Low28 °F (Feb 26, 1:50 AM)71% (Feb 26, 11:20 AM)29.18 "Hg (Feb 21, 4:20 PM)
Average36 °F89%29.96 "Hg
* Reported Feb 12 4:20 AM — Feb 27 4:20 AM, Lund, Weather by CustomWeather, © 2015

Note: Actual official high and low records may vary slightly from our data, if they occured in-between our weather recording intervals... More about our weather records

Advertising

Lund weather history for previous 24 hours

 ConditionsComfort  
Time TempWeatherWind HumidityBarometerVisibility
4:20 AM
Fri, Feb 27
36 °FClear.12 mph87%29.89 "Hg10 mi
3:50 AM37 °FClear.12 mph81%29.89 "Hg10 mi
3:20 AM37 °FClear.13 mph81%29.89 "Hg10 mi
2:50 AM37 °FClear.10 mph81%29.92 "Hg10 mi
2:20 AM36 °FClear.12 mph87%29.92 "Hg10 mi
1:50 AM37 °FClear.10 mph81%29.92 "Hg10 mi
1:20 AM37 °FClear.10 mph81%29.95 "Hg10 mi
12:50 AM37 °FClear.10 mph81%29.95 "Hg10 mi
12:20 AM37 °FClear.10 mph81%29.95 "Hg10 mi
11:50 PM
Thu, Feb 26
37 °FClear.10 mph81%29.95 "Hg10 mi
11:20 PM37 °FClear.12 mph87%29.98 "Hg10 mi
10:50 PM37 °FClear.12 mph87%29.98 "Hg10 mi
10:20 PM37 °FClear.13 mph87%29.98 "Hg10 mi
9:50 PM37 °FClear.13 mph87%30.01 "Hg10 mi
9:20 PM37 °FClear.14 mph87%29.98 "Hg10 mi
8:50 PM37 °FClear.14 mph87%30.01 "Hg10 mi
8:20 PM37 °FClear.14 mph87%30.01 "Hg10 mi
7:50 PM37 °FClear.15 mph87%30.01 "Hg10 mi
7:20 PM37 °FClear.15 mph87%30.01 "Hg10 mi
6:50 PM39 °FFog.15 mph81%30.01 "Hg6 mi
6:20 PM37 °FFog.14 mph87%30.01 "Hg6 mi
5:50 PM37 °FFog.13 mph87%30.04 "Hg6 mi
5:20 PM39 °FSunny.13 mph81%30.04 "Hg10 mi
4:50 PM39 °FSunny.14 mph81%30.04 "Hg10 mi
4:20 PM41 °FSunny.14 mph76%30.07 "Hg10 mi
3:50 PM41 °FSunny.13 mph76%30.07 "Hg10 mi
3:20 PM43 °FSunny.13 mph71%30.07 "Hg10 mi
2:50 PM43 °FSunny.13 mph71%30.09 "Hg10 mi
2:20 PM45 °FSunny.12 mph71%30.09 "Hg10 mi
1:50 PM43 °FSunny.14 mph71%30.09 "Hg10 mi
1:20 PM43 °FSunny.15 mph76%30.09 "Hg10 mi
12:50 PM43 °FSunny.14 mph76%30.12 "Hg10 mi
12:20 PM43 °FSunny.15 mph76%30.12 "Hg10 mi
11:50 AM43 °FSunny.16 mph71%30.15 "Hg10 mi
11:20 AM43 °FSunny.13 mph71%30.15 "Hg10 mi
10:50 AM41 °FSunny.13 mph76%30.15 "Hg10 mi
10:20 AM39 °FPartly sunny.10 mph87%30.15 "HgN/A
9:50 AM37 °FPartly sunny.9 mph93%30.15 "HgN/A
9:20 AM37 °FFog.10 mph93%30.15 "Hg4 mi
8:50 AM36 °FFog.8 mph100%30.15 "Hg4 mi
8:20 AM34 °FFog.7 mph100%30.15 "Hg2 mi
7:50 AM34 °FFog.6 mph100%30.15 "Hg1 mi
6:50 AM32 °FIce fog.3 mph100%30.15 "Hg0 mi
6:20 AM32 °FIce fog.3 mph100%30.15 "Hg0 mi
5:50 AM30 °FIce fog.5 mph100%30.15 "Hg0 mi
Weather by CustomWeather, © 2015

See weather overviewHow to use our weather pages